When you browse on this site, cookies collect data to enhance your experience and personalize the content and advertising you see.
Visit our Privacy Policy to learn more. By continuing to use the site, you agree to this use of cookies and data.
  • In Hungary
  • List of Countries
  • For 7 days
  • Water Temperature
  • Weather Map
  • News
  • Weather Widgets
  • user-avatar
    Login

    Hourly Weather Camocim

    Today, 14 November, Thursday

    Time Temperature Precipitation Wind Pressure Humidity
    00:00 +25°C° 0 mm 4 mps 756 mmHg 93%
    01:00 +25°C° 0 mm 4 mps 756 mmHg 90%
    02:00 +25°C° 0 mm 5 mps 756 mmHg 88%
    03:00 +26°C° 0 mm 5 mps 756 mmHg 85%
    04:00 +27°C° 0.1 mm 5 mps 756 mmHg 80%
    05:00 +27°C° 0.1 mm 5 mps 757 mmHg 75%
    06:00 +28°C° 0.1 mm 5 mps 757 mmHg 69%
    07:00 +29°C° 0.1 mm 5 mps 758 mmHg 65%
    08:00 +30°C° 0.1 mm 5 mps 758 mmHg 60%
    09:00 +32°C° 0.1 mm 5 mps 758 mmHg 55%
    10:00 +35°C° 0 mm 5 mps 758 mmHg 48%
    11:00 +37°C° 0 mm 5 mps 757 mmHg 40%
    12:00 +41°C° 0 mm 6 mps 757 mmHg 32%
    13:00 +40°C° 0 mm 6 mps 756 mmHg 35%
    14:00 +39°C° 0 mm 7 mps 755 mmHg 38%
    15:00 +38°C° 0 mm 8 mps 754 mmHg 41%
    16:00 +35°C° 0 mm 8 mps 755 mmHg 50%
    17:00 +32°C° 0 mm 7 mps 755 mmHg 59%
    18:00 +29°C° 0 mm 7 mps 755 mmHg 68%
    19:00 +28°C° 0 mm 6 mps 756 mmHg 72%
    20:00 +27°C° 0 mm 5 mps 756 mmHg 77%
    21:00 +27°C° 0 mm 5 mps 757 mmHg 81%
    22:00 +26°C° 0 mm 4 mps 757 mmHg 85%
    23:00 +25°C° 0 mm 4 mps 756 mmHg 88%

    Tomorrow, 15 November, Friday

    Time Temperature Precipitation Wind Pressure Humidity
    00:00 +25°C° 0 mm 4 mps 756 mmHg 92%
    01:00 +25°C° 0 mm 4 mps 756 mmHg 92%
    02:00 +25°C° 0 mm 4 mps 755 mmHg 93%
    03:00 +25°C° 0 mm 4 mps 755 mmHg 93%
    04:00 +25°C° 0.1 mm 4 mps 755 mmHg 88%
    05:00 +26°C° 0.1 mm 4 mps 756 mmHg 84%
    06:00 +27°C° 0.1 mm 5 mps 756 mmHg 80%
    07:00 +29°C° 0.1 mm 5 mps 757 mmHg 71%
    08:00 +30°C° 0.1 mm 5 mps 757 mmHg 63%
    09:00 +33°C° 0.1 mm 5 mps 758 mmHg 55%
    10:00 +35°C° 0 mm 5 mps 757 mmHg 49%
    11:00 +37°C° 0 mm 5 mps 756 mmHg 43%
    12:00 +40°C° 0 mm 5 mps 756 mmHg 36%
    13:00 +39°C° 0 mm 6 mps 755 mmHg 39%
    14:00 +38°C° 0 mm 7 mps 754 mmHg 42%
    15:00 +36°C° 0 mm 7 mps 754 mmHg 44%
    16:00 +34°C° 0 mm 7 mps 754 mmHg 51%
    17:00 +32°C° 0 mm 7 mps 754 mmHg 58%
    18:00 +29°C° 0 mm 8 mps 754 mmHg 65%
    19:00 +29°C° 0 mm 7 mps 755 mmHg 69%
    20:00 +28°C° 0 mm 6 mps 755 mmHg 73%
    21:00 +27°C° 0 mm 5 mps 755 mmHg 77%
    22:00 +27°C° 0 mm 5 mps 755 mmHg 80%
    23:00 +26°C° 0 mm 5 mps 755 mmHg 83%

    Day after tomorrow, 16 November, Saturday

    Time Temperature Precipitation Wind Pressure Humidity
    00:00 +25°C° 0 mm 4 mps 755 mmHg 87%
    01:00 +26°C° 0.1 mm 4 mps 754 mmHg 86%
    02:00 +26°C° 0.1 mm 5 mps 754 mmHg 85%
    03:00 +27°C° 0.1 mm 5 mps 753 mmHg 85%
    04:00 +27°C° 0.1 mm 5 mps 754 mmHg 83%
    05:00 +27°C° 0.1 mm 5 mps 754 mmHg 82%
    06:00 +28°C° 0.1 mm 5 mps 755 mmHg 81%
    07:00 +29°C° 0 mm 5 mps 755 mmHg 71%
    08:00 +32°C° 0 mm 5 mps 755 mmHg 61%
    09:00 +34°C° 0 mm 5 mps 756 mmHg 51%
    10:00 +36°C° 0 mm 6 mps 755 mmHg 46%
    11:00 +38°C° 0 mm 6 mps 755 mmHg 41%
    12:00 +40°C° 0 mm 6 mps 754 mmHg 36%
    13:00 +39°C° 0 mm 7 mps 754 mmHg 39%
    14:00 +38°C° 0 mm 8 mps 753 mmHg 42%
    15:00 +37°C° 0 mm 8 mps 753 mmHg 45%
    16:00 +34°C° 0 mm 8 mps 753 mmHg 52%
    17:00 +32°C° 0 mm 7 mps 753 mmHg 60%
    18:00 +29°C° 0 mm 7 mps 753 mmHg 67%
    19:00 +28°C° 0 mm 6 mps 754 mmHg 71%
    20:00 +28°C° 0 mm 5 mps 754 mmHg 76%
    21:00 +27°C° 0 mm 5 mps 755 mmHg 81%
    22:00 +26°C° 0 mm 5 mps 754 mmHg 83%
    23:00 +26°C° 0 mm 4 mps 754 mmHg 85%

    17 November, Sunday

    Time Temperature Precipitation Wind Pressure Humidity
    00:00 +25°C° 0 mm 4 mps 754 mmHg 87%
    01:00 +25°C° 0 mm 4 mps 754 mmHg 88%
    02:00 +25°C° 0 mm 4 mps 753 mmHg 88%
    03:00 +25°C° 0 mm 4 mps 753 mmHg 89%
    04:00 +26°C° 0.1 mm 4 mps 754 mmHg 88%
    05:00 +26°C° 0.1 mm 4 mps 754 mmHg 87%
    06:00 +26°C° 0.1 mm 4 mps 755 mmHg 86%
    07:00 +28°C° 0 mm 5 mps 755 mmHg 75%
    08:00 +32°C° 0 mm 5 mps 756 mmHg 65%
    09:00 +34°C° 0 mm 5 mps 756 mmHg 54%
    10:00 +35°C° 0 mm 6 mps 756 mmHg 49%
    11:00 +38°C° 0 mm 7 mps 755 mmHg 44%
    12:00 +39°C° 0 mm 7 mps 755 mmHg 39%
    13:00 +39°C° 0 mm 8 mps 754 mmHg 40%
    14:00 +38°C° 0 mm 8 mps 753 mmHg 41%
    15:00 +37°C° 0 mm 9 mps 753 mmHg 42%
    16:00 +34°C° 0 mm 8 mps 753 mmHg 49%
    17:00 +33°C° 0 mm 8 mps 753 mmHg 56%
    18:00 +31°C° 0 mm 8 mps 754 mmHg 63%
    19:00 +29°C° 0 mm 7 mps 754 mmHg 68%
    20:00 +28°C° 0 mm 7 mps 754 mmHg 72%
    21:00 +28°C° 0 mm 6 mps 755 mmHg 77%
    22:00 +27°C° 0 mm 6 mps 755 mmHg 80%
    23:00 +26°C° 0 mm 6 mps 754 mmHg 84%

    18 November, Monday

    Time Temperature Precipitation Wind Pressure Humidity
    00:00 +26°C° 0 mm 5 mps 754 mmHg 87%
    01:00 +25°C° 0 mm 5 mps 754 mmHg 89%
    02:00 +25°C° 0 mm 5 mps 754 mmHg 92%
    03:00 +25°C° 0 mm 5 mps 753 mmHg 94%
    04:00 +25°C° 0 mm 5 mps 754 mmHg 93%
    05:00 +25°C° 0 mm 4 mps 754 mmHg 91%
    06:00 +26°C° 0 mm 4 mps 755 mmHg 90%
    07:00 +29°C° 0 mm 5 mps 755 mmHg 76%
    08:00 +33°C° 0 mm 6 mps 756 mmHg 62%
    09:00 +36°C° 0 mm 6 mps 756 mmHg 48%
    10:00 +38°C° 0 mm 7 mps 756 mmHg 44%
    11:00 +39°C° 0 mm 7 mps 755 mmHg 40%
    12:00 +41°C° 0 mm 8 mps 755 mmHg 35%
    13:00 +40°C° 0 mm 8 mps 754 mmHg 38%
    14:00 +39°C° 0 mm 8 mps 754 mmHg 40%
    15:00 +39°C° 0 mm 9 mps 753 mmHg 43%
    16:00 +35°C° 0 mm 9 mps 753 mmHg 51%
    17:00 +33°C° 0 mm 8 mps 754 mmHg 58%
    18:00 +31°C° 0 mm 8 mps 754 mmHg 66%
    19:00 +31°C° 0 mm 8 mps 754 mmHg 70%
    20:00 +29°C° 0 mm 7 mps 755 mmHg 74%
    21:00 +28°C° 0 mm 7 mps 755 mmHg 78%
    22:00 +27°C° 0 mm 6 mps 755 mmHg 82%
    23:00 +27°C° 0 mm 6 mps 755 mmHg 86%

    19 November, Tuesday

    Time Temperature Precipitation Wind Pressure Humidity
    00:00 +26°C° 0 mm 5 mps 755 mmHg 90%
    01:00 +26°C° 0 mm 5 mps 755 mmHg 90%
    02:00 +26°C° 0 mm 5 mps 755 mmHg 89%
    03:00 +26°C° 0 mm 4 mps 755 mmHg 89%
    04:00 +27°C° 0 mm 5 mps 755 mmHg 83%
    05:00 +28°C° 0 mm 5 mps 755 mmHg 77%
    06:00 +29°C° 0 mm 5 mps 756 mmHg 72%
    07:00 +30°C° 0 mm 5 mps 756 mmHg 66%
    08:00 +33°C° 0 mm 5 mps 757 mmHg 60%
    09:00 +34°C° 0 mm 5 mps 757 mmHg 54%
    10:00 +36°C° 0 mm 5 mps 756 mmHg 48%
    11:00 +39°C° 0 mm 6 mps 756 mmHg 42%
    12:00 +41°C° 0 mm 6 mps 755 mmHg 36%
    13:00 +40°C° 0 mm 7 mps 755 mmHg 38%
    14:00 +39°C° 0 mm 8 mps 754 mmHg 40%
    15:00 +38°C° 0 mm 9 mps 753 mmHg 41%
    16:00 +35°C° 0 mm 8 mps 753 mmHg 50%
    17:00 +33°C° 0 mm 8 mps 754 mmHg 58%
    18:00 +30°C° 0 mm 7 mps 754 mmHg 66%
    19:00 +30°C° 0 mm 7 mps 755 mmHg 70%
    20:00 +29°C° 0 mm 6 mps 755 mmHg 74%
    21:00 +28°C° 0 mm 6 mps 756 mmHg 78%
    22:00 +28°C° 0 mm 5 mps 756 mmHg 81%
    23:00 +27°C° 0 mm 5 mps 756 mmHg 83%
    Show more